Weather History for KIJX - December, 2012

Change the Weather History Date:

Thursday, December 20, 2012

  Actual Average (KSPI) Record (KSPI)
Temperature  
Mean Temperature 40 °F 29 °F  
Max Temperature 55 °F 37 °F 64 °F (1949)
Min Temperature 26 °F 21 °F -14 °F (1989)
Degree Days  
Heating Degree Days 24 36  
Month to date heating degree days 665  
Since 1 July heating degree days 1733  
Cooling Degree Days 0 0  
Month to date cooling degree days 0  
Year to date cooling degree days 1122  
Moisture  
Dew Point 37 °F    
Average Humidity 89    
Maximum Humidity 97    
Minimum Humidity 76    
Precipitation  
Precipitation 0.13 in 0.08 in 0.96 in (2012)
Month to date precipitation 1.73  
Year to date precipitation 36.64  
Snow  
Snow 0.00 in 0.20 in 3.70 in (1960)
Month to date snowfall 3.2  
Since 1 July snowfall 3.8  
Snow Depth -    
Sea Level Pressure  
Sea Level Pressure 29.46 in    
Wind  
Wind Speed 21 mph (WSW)    
Max Wind Speed 44 mph    
Max Gust Speed 55 mph    
Visibility 6 miles    
Events Fog , Rain , Snow , Thunderstorm    
T = Trace of Precipitation, MM = Missing Value Source: NWS Daily Summary

Daily Weather History Graph

Daily Weather History Graph

Search for Another Location

Airport or City:

Trip Planner

Search our weather history database for the weather conditions in past years. The results will help you decide how hot, cold, wet, or windy it might be!

Date:

Astronomy

Dec. 20, 2012 Rise Set
Actual Time 7:18 AM CST 4:39 PM CST
Civil Twilight 6:47 AM CST 5:09 PM CST
Nautical Twilight 6:13 AM CST 5:43 PM CST
Astronomical Twilight 5:41 AM CST 6:16 PM CST
Moon 11:56 AM CST (12/20) 12:06 AM CST (12/20)
Length of Visible Light 10h 22m
Length of Day
9h 21m
First Quarter, 55% of the Moon is Illuminated
Dec 20
First Quarter
Dec 28
Full
Jan 4
Last Quarter
Jan 11
New
Jan 18
First Quarter

Hourly Weather History & Observations

Time (CST) Temp. Windchill Dew Point Humidity Pressure Visibility Wind Dir Wind Speed Gust Speed Precip Events Conditions
12:15 AM 48.0 °F - 45.5 °F 91% 29.51 in 7.0 mi SE 8.1 mph - N/A   Overcast
12:35 AM 49.5 °F - 46.4 °F 89% 29.49 in 10.0 mi SE 10.4 mph - N/A   Overcast
12:55 AM 50.5 °F - 46.8 °F 87% 29.47 in 10.0 mi SE 11.5 mph - N/A   Mostly Cloudy
1:15 AM 51.8 °F - 47.3 °F 85% 29.46 in 10.0 mi SE 11.5 mph 17.3 mph N/A Thunderstorm Thunderstorm
1:35 AM 53.4 °F - 48.0 °F 82% 29.45 in 10.0 mi SSE 15.0 mph 24.2 mph N/A   Mostly Cloudy
1:55 AM 53.6 °F - 48.6 °F 83% 29.45 in 10.0 mi South 19.6 mph 25.3 mph 0.01 in Rain Rain
2:15 AM 53.1 °F - 50.4 °F 91% 29.43 in 7.0 mi SSE 19.6 mph 26.5 mph 0.02 in Rain Light Rain
2:35 AM 53.4 °F - 51.1 °F 92% 29.43 in 10.0 mi South 18.4 mph 28.8 mph 0.04 in Rain Light Rain
2:55 AM 53.6 °F - 51.4 °F 92% 29.40 in 10.0 mi South 18.4 mph 25.3 mph 0.05 in Rain Light Rain
3:15 AM 53.8 °F - 51.8 °F 93% 29.38 in 10.0 mi SSE 20.7 mph 26.5 mph 0.01 in Rain Light Rain
3:35 AM 53.6 °F - 51.8 °F 94% 29.32 in 7.0 mi SSE 20.7 mph 27.6 mph 0.04 in Rain Light Rain
3:55 AM 53.6 °F - 51.6 °F 93% 29.30 in 10.0 mi SE 19.6 mph 25.3 mph 0.04 in   Scattered Clouds
4:15 AM 53.6 °F - 51.4 °F 92% 29.29 in 10.0 mi SSE 16.1 mph 25.3 mph N/A   Clear
4:35 AM 53.8 °F - 51.8 °F 93% 29.28 in 10.0 mi SSE 18.4 mph 24.2 mph N/A   Clear
4:55 AM 53.1 °F - 51.1 °F 93% 29.25 in 10.0 mi SE 16.1 mph 24.2 mph N/A   Clear
5:15 AM 53.1 °F - 51.3 °F 94% 29.24 in 10.0 mi SE 16.1 mph 25.3 mph N/A   Scattered Clouds
5:35 AM 53.1 °F - 51.6 °F 95% 29.23 in 10.0 mi SE 12.7 mph 21.9 mph N/A   Overcast
5:55 AM 53.6 °F - 52.0 °F 94% 29.22 in 10.0 mi SSE 15.0 mph 25.3 mph N/A   Overcast
6:15 AM 54.1 °F - 52.7 °F 95% 29.21 in 10.0 mi SE 15.0 mph 20.7 mph N/A   Overcast
6:35 AM 54.5 °F - 53.1 °F 95% 29.21 in 10.0 mi SSE 15.0 mph 19.6 mph N/A   Overcast
6:55 AM 54.9 °F - 52.9 °F 93% 29.20 in 10.0 mi SSE 15.0 mph 20.7 mph N/A   Overcast
7:15 AM 55.0 °F - 53.2 °F 94% 29.19 in 7.0 mi SSE 15.0 mph 21.9 mph N/A Rain Light Rain
7:35 AM 55.0 °F - 53.1 °F 93% 29.18 in 10.0 mi South 15.0 mph 21.9 mph N/A   Overcast
7:55 AM 55.6 °F - 52.2 °F 88% 29.18 in 7.0 mi SSW 17.3 mph 32.2 mph 0.02 in Rain Light Rain
8:15 AM 53.4 °F - 48.7 °F 84% 29.19 in 10.0 mi WSW 27.6 mph 34.5 mph N/A Rain Light Rain
8:35 AM 51.1 °F - 45.0 °F 80% 29.20 in 10.0 mi SW 25.3 mph 34.5 mph N/A Rain Rain
8:55 AM 48.9 °F - 46.2 °F 90% 29.21 in 7.0 mi SW 26.5 mph 31.1 mph N/A   Light Drizzle
9:15 AM 46.2 °F 37.3 °F 40.1 °F 79% 29.22 in 10.0 mi SW 27.6 mph 39.1 mph N/A   Overcast
9:35 AM 45.5 °F 37.8 °F 39.2 °F 79% 29.22 in 10.0 mi SW 19.6 mph 34.5 mph N/A   Overcast
9:55 AM 44.6 °F 35.3 °F 38.5 °F 79% 29.21 in 10.0 mi SW 26.5 mph 32.2 mph N/A   Overcast
10:15 AM 43.7 °F 34.7 °F 38.3 °F 81% 29.22 in 10.0 mi SW 23.0 mph 28.8 mph N/A   Overcast
10:35 AM 42.3 °F 33.6 °F 38.5 °F 86% 29.21 in 3.0 mi SW 19.6 mph 31.1 mph N/A   Overcast
10:55 AM 41.5 °F 32.1 °F 39.4 °F 92% 29.22 in 1.5 mi West 21.9 mph 27.6 mph N/A   Drizzle
11:15 AM 40.1 °F 30.7 °F 38.5 °F 94% 29.22 in 2.0 mi West 19.6 mph 27.6 mph N/A Rain Light Rain
11:35 AM 37.9 °F 26.6 °F 36.5 °F 95% 29.23 in 2.0 mi West 25.3 mph 31.1 mph 0.01 in   Light Drizzle
11:55 AM 36.0 °F 23.0 °F 34.5 °F 94% 29.25 in 1.5 mi West 29.9 mph 36.8 mph 0.01 in Snow Light Snow
12:15 PM 34.9 °F 22.0 °F 33.6 °F 95% 29.27 in 1.0 mi West 27.6 mph 35.7 mph N/A Snow Light Snow
12:35 PM 34.7 °F 22.0 °F 33.8 °F 97% 29.28 in 0.8 mi West 26.5 mph 35.7 mph N/A Snow Light Snow
12:55 PM 34.3 °F 20.8 °F 33.4 °F 97% 29.30 in 0.5 mi West 29.9 mph 35.7 mph N/A Snow Snow
1:15 PM 34.2 °F 20.3 °F 33.3 °F 97% 29.32 in 0.5 mi West 31.1 mph 41.4 mph N/A Snow Snow
1:55 PM 33.4 °F 18.1 °F 32.0 °F 94% 29.36 in 0.5 mi WNW 38.0 mph 52.9 mph N/A Snow Snow
2:15 PM 32.9 °F 17.4 °F 32.0 °F 96% 29.39 in 0.2 mi West 38.0 mph 47.2 mph N/A   Unknown
2:35 PM 32.9 °F 17.8 °F 31.8 °F 96% 29.43 in 0.2 mi West 35.7 mph 43.7 mph N/A Snow Snow
2:55 PM 32.5 °F 16.7 °F 31.6 °F 96% 29.45 in - West 39.1 mph 49.5 mph N/A   Unknown
3:15 PM 32.0 °F 16.5 °F 31.1 °F 96% 29.48 in 0.2 mi West 35.7 mph 47.2 mph N/A Fog Fog
3:35 PM 32.0 °F 15.8 °F 30.2 °F 93% 29.51 in 0.2 mi West 40.3 mph 55.2 mph N/A   Unknown
3:55 PM 30.9 °F 13.7 °F 29.3 °F 94% 29.54 in 0.2 mi West 43.7 mph 49.5 mph N/A Snow Heavy Snow
4:15 PM 30.7 °F 13.7 °F 29.1 °F 94% 29.57 in 0.2 mi West 42.6 mph 54.1 mph N/A Snow Heavy Snow
4:35 PM 30.2 °F 13.9 °F 28.4 °F 93% 29.59 in 0.5 mi West 36.8 mph 46.0 mph N/A Snow Snow
4:55 PM 30.0 °F 13.6 °F 28.2 °F 93% 29.61 in 0.5 mi West 36.8 mph 50.6 mph N/A Snow Heavy Snow
5:15 PM 30.0 °F 12.6 °F 28.2 °F 93% 29.63 in 0.5 mi West 42.6 mph 51.8 mph N/A Snow Snow
5:55 PM 30.0 °F 13.6 °F 27.5 °F 90% 29.68 in - West 36.8 mph - N/A Snow Snow
6:15 PM 30.0 °F 13.6 °F 27.0 °F 88% 29.69 in 1.0 mi WNW 36.8 mph 48.3 mph N/A Snow Light Snow
6:35 PM 30.0 °F 14.0 °F 26.2 °F 86% 29.71 in 1.2 mi West 34.5 mph 42.6 mph N/A Snow Light Snow
6:55 PM 29.1 °F 12.2 °F 25.7 °F 87% 29.73 in 1.2 mi WNW 38.0 mph 46.0 mph N/A Snow Light Snow
7:15 PM 28.9 °F 11.5 °F 24.8 °F 84% 29.75 in 1.0 mi WNW 40.3 mph 54.1 mph N/A Snow Light Snow
7:35 PM 28.6 °F 12.0 °F 24.1 °F 83% 29.76 in 1.5 mi WNW 34.5 mph 44.9 mph N/A Snow Light Snow
7:55 PM 28.2 °F 11.6 °F 23.5 °F 83% 29.77 in 2.5 mi West 34.5 mph 42.6 mph N/A Snow Light Snow
8:15 PM 27.7 °F 11.0 °F 23.0 °F 83% 29.79 in 3.0 mi WNW 33.4 mph 41.4 mph N/A   Haze
8:35 PM 27.3 °F 9.9 °F 22.3 °F 81% 29.80 in 3.0 mi West 36.8 mph 42.6 mph N/A Snow Light Snow
8:55 PM 27.3 °F 11.5 °F 22.1 °F 81% 29.82 in 3.0 mi WNW 28.8 mph 42.6 mph N/A Snow Light Snow
9:15 PM 27.1 °F 11.0 °F 22.1 °F 81% 29.82 in 3.0 mi WNW 29.9 mph 44.9 mph N/A   Haze
9:35 PM 27.3 °F 12.1 °F 21.9 °F 80% 29.83 in 7.0 mi WNW 26.5 mph 40.3 mph N/A   Overcast
9:55 PM 27.3 °F 12.7 °F 21.6 °F 79% 29.84 in 10.0 mi WNW 24.2 mph 34.5 mph N/A   Overcast
10:15 PM 27.1 °F 10.8 °F 21.2 °F 78% 29.85 in 10.0 mi WNW 31.1 mph 39.1 mph N/A   Overcast
10:35 PM 26.6 °F 10.0 °F 21.2 °F 80% 29.85 in 4.0 mi West 31.1 mph 38.0 mph N/A   Haze
10:55 PM 26.6 °F 9.8 °F 20.5 °F 78% 29.86 in 7.0 mi West 32.2 mph 39.1 mph N/A   Scattered Clouds
11:15 PM 26.4 °F 10.3 °F 20.1 °F 77% 29.87 in 10.0 mi West 28.8 mph 40.3 mph N/A   Clear
11:35 PM 26.1 °F 9.3 °F 19.9 °F 78% 29.88 in 10.0 mi West 31.1 mph 35.7 mph N/A   Clear
11:55 PM 26.1 °F 10.7 °F 19.4 °F 76% 29.90 in 10.0 mi West 25.3 mph 34.5 mph N/A   Clear